sat.trackr.live / text

‹ back to catalog

CONTECSAT-1

NORAD 59117 · 2024-043V

PAYLOAD ACTIVE UNKNOWN

§ Identity

Operator
Country
SKOR
Launch date
2024-03-04
Launch site
AFWTR
Launch vehicle
Mass (kg)
RCS (m²)

External: N2YO · Heavens-Above · Gunter

§ Orbital elements

Epoch: 2026-05-25T03:57:25.149888Z

Period
93.74 min
Inclination
97.5610°
Eccentricity
0.0009155
Mean motion
15.36165406 rev/d
Perigee alt
451.2 km
Apogee alt
463.7 km
Semi-major
6,835.6 km
B*
2.2619e-4
RAAN
285.5458°
Arg perigee
323.1156°
Mean anomaly
36.9457°
Rev number
12,371

§ Raw data

CONTECSAT-11 59117U 24043V   26145.16487442  .00007895  00000+0  22619-3 0  99912 59117  97.5610 285.5458 0009155 323.1156  36.9457 15.36165406123716

JSON: /api/v1/satellites/59117 · /tle

For live sub-satellite position, see the globe view (requires WebGL).

§ Visibility from observer

Set your observer location to see the next 7 days of passes ≥ 10°. The values pass through the URL so the page stays shareable.

No JS? Fill the form by hand. The geolocation button needs JavaScript.

§ Radio — SatNOGS DB

ModeDescriptionDownlinkUplink
FM Mode S - Downlink 1 2.220 GHz
FM Mode S - Downlink 2 2.245 GHz
GFSK Mode U - Downlink 401.050 MHz
FM Mode X - Downlink (67.5 MHz) 8.110 GHz

4 transmitters · refreshed weekly from db.satnogs.org